星链-30843 (STARLINK-30843 )

导读 | 星芒AI

STARLINK-30843 是 SpaceX Starlink 卫星互联网项目中的一颗低轨卫星,属于第三代星链卫星(v1.5 或 v2 架构)。它由猎鹰 9 号火箭发射入轨,旨在为全球用户提供高速、低延迟的宽带互联网服务。该卫星运行在约 550 公里的近地轨道,配备先进通信设备和激光链路,支持星间通信,提高网络效率与覆盖能力。作为星链星座的一部分,STARLINK-30843 有助于扩展 SpaceX 的全球互联网接入计划,特别是在偏远和网络基础设施薄弱的地区。

基本信息
目录编号:
58241
目录名称:
STARLINK-30843
国际标识:
2023-171M
轨道中心:
EARTH
卫星名称:
星链-30843
卫星全名:
星链-30843 (STARLINK-30843 )
卫星状态:
在轨 (已飞行772 天)
发射日期:
2023-11-08 UTC
国别 :
美国 (US)
星等 :
--
轨道信息
数据来源 国际轨道数据
星历时间: 2025-12-19T09:41:33+0800
16小时前
查看轨道信息
半长轴: 6937.22km
偏心率: 0.0001189
轨道倾角: 43.004°
近地点辐角 286.232°
升交点赤经 4.441°
平近点角 73.839°
近地点: 558.258km
远地点: 559.908km
周期: 95.838分钟
每日圈数: 15.025351
详细信息
固有亮度:
5
最大亮度:
0.3
卫星平台:
Starlink v2.0 mini
覆盖范围:
全球
运营商:
太空探索技术公司
运营商所在国:
美国
制造商(研发单位):
太空探索技术公司
制造商所在国:
美国
使用方式:
暂无
卫星简介
星链(Starlink)计划是由太空探索技术公司(SpaceX)提出的一个巨型低轨卫星互联网星座项目,计划在2019年至2024年间在太空搭建由约1.2万颗卫星组成的“星链”网络,其中1584颗将部署在地球上空550千米处的近地轨道,并从2020年开始工作。该卫星仍在工作。
2D轨道图
3D轨道图
轨道高度分析图
轨道倾角分析图
轨道综合分析图
查看轨道综合分析图